Weather reports worldwide

Advertisment
Leuchars, United Kingdom (3171): temperature & dewpoint: 21.04.2017 04:00:00 - 27.04.2017 04:00:00 (BST)Leuchars, United Kingdom (3171): temperature -20cm & temperature -100cm: 21.04.2017 04:00:00 - 27.04.2017 04:00:00 (BST)Leuchars, United Kingdom (3171): wind speed & gusts: 21.04.2017 04:00:00 - 27.04.2017 04:00:00 (BST)Leuchars, United Kingdom (3171): wind direction: 21.04.2017 04:00:00 - 27.04.2017 04:00:00 (BST)Leuchars, United Kingdom (3171): reduced air pressure: 21.04.2017 04:00:00 - 27.04.2017 04:00:00 (BST)Leuchars, United Kingdom (3171): visibility: 21.04.2017 04:00:00 - 27.04.2017 04:00:00 (BST)Leuchars, United Kingdom (3171): sunshine duration: 21.04.2017 04:00:00 - 27.04.2017 04:00:00 (BST)Leuchars, United Kingdom (3171): precipitation: 21.04.2017 04:00:00 - 27.04.2017 04:00:00 (BST)
Date & Time tt [°C] td [°C] tt -20cm [°C] tt -100cm [°C] ff [km/h] ff [kn] fx [km/h] fx [kn] dd ppp [hPa] vv [km] sd [min] rr [mm]
27.04.2017 04:00:00 6,9 2,4 - - 16 9 - - W 1016,4 10 0 0,0
27.04.2017 03:00:00 7,6 2,0 - - 16 9 - - W 1016,9 10 0 0,0
27.04.2017 02:00:00 7,6 1,5 - - 15 8 - - W 1017,2 10 0 0,0
27.04.2017 01:00:00 7,4 1,2 - - 16 9 - - W 1017,7 10 - 0,0
27.04.2017 00:00:00 7,0 1,9 - - 13 7 - - W 1018,1 10 0 0,0
26.04.2017 23:00:00 8,0 1,1 - - 15 8 - - W 1018,7 10 0 0,0
26.04.2017 22:00:00 8,3 0,4 - - 13 7 - - WNW 1019,0 10 0 0,0
26.04.2017 21:00:00 8,3 -0,2 - - 8 4 - - W 1019,1 10 0 0,0
26.04.2017 20:00:00 8,2 -0,2 - - 4 2 - - S 1019,3 10 0 0,0
26.04.2017 19:00:00 8,3 -0,3 - - 8 4 - - ESE 1019,5 10 0 0,0
26.04.2017 18:00:00 8,7 -2,5 - - 9 5 - - N 1019,7 45 0 0,0
26.04.2017 17:00:00 9,0 -3,1 - - 16 9 - - N 1020,0 10 18 0,0
26.04.2017 16:00:00 9,1 -3,2 - - 18 10 - - N 1020,3 10 6 0,0
26.04.2017 15:00:00 8,2 -3,2 - - 11 6 - - NNE 1020,6 10 0 0,0
26.04.2017 14:00:00 8,8 -2,7 - - 11 6 - - W 1020,7 10 30 0,0
26.04.2017 13:00:00 8,3 -2,8 - - 16 9 - - NNE 1020,8 10 54 0,0
26.04.2017 12:00:00 8,3 -3,6 - - 21 11 - - N 1020,9 10 48 0,0
26.04.2017 11:00:00 8,4 -3,8 - - 18 10 - - N 1020,8 10 54 0,0
26.04.2017 10:00:00 7,0 -2,6 6,7 8,7 13 7 - - NNW 1020,9 10 54 0,0
26.04.2017 09:00:00 5,4 -3,8 - - 11 6 - - NW 1021,0 10 60 0,0
26.04.2017 08:00:00 4,5 -2,8 - - 15 8 - - WNW 1020,8 10 54 0,0
26.04.2017 07:00:00 2,5 -1,2 - - 15 8 - - W 1020,6 10 18 0,0
26.04.2017 06:00:00 -0,3 -2,5 - - 11 6 - - W 1020,8 10 0 0,0
26.04.2017 05:00:00 -1,3 -3,8 - - 13 7 - - W 1020,6 10 0 0,0
26.04.2017 04:00:00 2,0 -2,4 - - 11 6 - - NW 1020,6 10 0 0,0
26.04.2017 03:00:00 1,5 -2,3 - - 15 8 - - W 1020,6 10 0 0,0
26.04.2017 02:00:00 2,5 -2,7 - - 16 9 - - NNW 1020,6 10 0 0,0
26.04.2017 01:00:00 3,1 -2,7 - - 18 10 - - N 1020,5 10 - 0,0
26.04.2017 00:00:00 3,0 -2,6 - - 13 7 - - NNW 1020,4 10 0 0,0
25.04.2017 23:00:00 3,4 -2,0 - - 18 10 - - N 1020,2 10 0 0,0
25.04.2017 22:00:00 3,3 -1,4 - - 16 9 - - N 1020,2 10 0 0,0
25.04.2017 21:00:00 4,1 -0,9 - - 26 14 - - N 1019,7 10 0 0,0
25.04.2017 20:00:00 5,7 -1,1 - - 26 14 - - N 1019,0 10 42 0,0
25.04.2017 19:00:00 5,9 0,1 - - 15 8 52 28 NNW 1018,7 10 30 0,0
25.04.2017 18:00:00 6,3 0,5 - - 22 12 50 27 NE 1017,8 10 18 0,0
25.04.2017 17:00:00 6,5 -0,2 - - 31 17 54 29 NNE 1017,6 10 42 0,0
25.04.2017 16:00:00 6,1 -1,6 - - 37 20 63 34 N 1017,6 10 36 0,0
25.04.2017 15:00:00 6,2 0,5 - - 35 19 57 31 N 1017,3 10 18 0,0
25.04.2017 14:00:00 6,0 1,4 - - 35 19 59 32 N 1016,7 45 48 0,0
25.04.2017 13:00:00 6,1 1,8 - - 24 13 50 27 N 1016,1 10 30 0,0
25.04.2017 12:00:00 5,4 1,9 - - 21 11 55 30 NNW 1015,8 45 12 0,0
25.04.2017 11:00:00 4,7 1,9 - - 24 13 50 27 NNW 1015,3 10 12 0,0
25.04.2017 10:00:00 4,0 1,5 7,0 8,7 29 16 55 30 N 1014,6 10 6 0,4
25.04.2017 09:00:00 3,9 1,5 - - 13 7 - - NW 1014,4 10 12 0,2
25.04.2017 08:00:00 3,2 0,0 - - 9 5 - - NNW 1013,9 22 0 0,0
25.04.2017 07:00:00 2,4 -0,1 - - 15 8 - - WNW 1013,8 10 0 1,0
25.04.2017 06:00:00 2,7 -0,7 - - 15 8 - - NNW 1013,3 10 0 0,0
25.04.2017 05:00:00 2,0 -0,5 - - 16 9 - - WNW 1013,2 10 0 0,0
25.04.2017 04:00:00 1,4 -1,2 - - 13 7 - - WNW 1013,4 10 0 0,0
25.04.2017 03:00:00 1,4 -1,7 - - 15 8 - - WNW 1013,3 10 0 0,0
25.04.2017 02:00:00 0,7 -1,4 - - 0 0 - - N 1013,5 50 0 0,0
25.04.2017 01:00:00 0,1 -0,2 - - 8 4 - - WNW 1013,8 10 - 0,0
25.04.2017 00:00:00 0,8 -0,4 - - 22 12 - - NNE 1013,7 2,0 0 0,2
24.04.2017 23:00:00 3,7 -2,2 - - 15 8 - - NW 1012,3 10 0 0,0
24.04.2017 22:00:00 2,2 -4,3 - - 4 2 - - NW 1011,8 10 0 0,0
24.04.2017 21:00:00 2,9 -5,6 - - 5 3 - - W 1011,5 10 0 0,0
24.04.2017 20:00:00 4,8 -5,8 - - 21 11 - - NW 1011,3 10 42 0,0
24.04.2017 19:00:00 5,6 -5,7 - - 16 9 - - NNW 1011,8 10 6 0,0
24.04.2017 18:00:00 4,6 -5,8 - - 22 12 50 27 NNW 1012,1 10 0 0,0
24.04.2017 17:00:00 4,7 -3,6 - - 22 12 55 30 NW 1011,5 10 0 0,0
24.04.2017 16:00:00 6,0 -4,2 - - 37 20 65 35 NNW 1011,2 10 18 0,0
24.04.2017 15:00:00 7,5 -2,7 - - 31 17 63 34 NNW 1010,1 10 48 0,0
24.04.2017 14:00:00 8,4 0,8 - - 35 19 70 38 NW 1009,6 10 30 0,0
24.04.2017 13:00:00 9,3 -2,6 - - 31 17 54 29 WNW 1009,5 10 30 0,0
24.04.2017 12:00:00 8,8 -3,1 - - 34 18 52 28 W 1010,3 10 36 0,0
24.04.2017 11:00:00 8,5 -2,8 - - 29 16 48 26 W 1010,9 10 42 0,0
24.04.2017 10:00:00 7,7 -2,7 7,2 8,7 28 15 - - WNW 1012,0 10 60 0,0
24.04.2017 09:00:00 7,0 -0,2 - - 24 13 - - WNW 1012,6 10 60 0,0
24.04.2017 08:00:00 5,9 1,4 - - 13 7 - - WNW 1013,4 10 42 0,0
24.04.2017 07:00:00 5,3 1,4 - - 16 9 - - NW 1013,4 10 30 0,0
24.04.2017 06:00:00 4,5 0,7 - - 11 6 - - NW 1013,4 10 0 0,0
24.04.2017 05:00:00 4,8 1,1 - - 15 8 - - WNW 1013,1 10 0 0,0
24.04.2017 04:00:00 5,8 1,6 - - 16 9 - - NNW 1013,4 10 0 0,0
24.04.2017 03:00:00 6,7 3,8 - - 13 7 - - WNW 1013,3 10 0 0,8
24.04.2017 02:00:00 9,1 5,0 - - 22 12 - - W 1012,7 10 0 0,0
24.04.2017 01:00:00 7,6 4,5 - - 16 9 - - W 1012,8 10 - 0,0
24.04.2017 00:00:00 7,6 4,1 - - 31 17 - - W 1013,2 10 0 0,0
23.04.2017 23:00:00 7,9 3,3 - - 29 16 - - W 1014,2 10 0 0,0
23.04.2017 22:00:00 8,6 2,2 - - 29 16 52 28 W 1015,2 10 0 0,0
23.04.2017 21:00:00 9,2 1,6 - - 28 15 - - W 1015,8 10 12 0,0
23.04.2017 20:00:00 11,1 1,1 - - 29 16 - - W 1016,4 10 60 0,0
23.04.2017 19:00:00 12,7 1,1 - - 31 17 48 26 W 1017,0 10 54 0,0
23.04.2017 18:00:00 13,3 1,2 - - 37 20 54 29 W 1017,6 10 54 0,0
23.04.2017 17:00:00 13,4 1,9 - - 37 20 54 29 W 1018,6 10 60 0,0
23.04.2017 16:00:00 13,0 1,5 - - 35 19 48 26 W 1019,3 10 54 0,0
23.04.2017 15:00:00 13,5 1,8 - - 35 19 - - W 1020,4 10 60 0,0
23.04.2017 14:00:00 13,4 1,4 - - 31 17 - - W 1021,4 10 60 0,0
23.04.2017 13:00:00 12,1 1,0 - - 24 13 - - W 1022,3 10 54 0,0
23.04.2017 12:00:00 11,8 1,1 - - 18 10 - - W 1023,2 10 60 0,0
23.04.2017 11:00:00 10,4 0,1 - - 21 11 - - WNW 1024,3 10 60 0,0
23.04.2017 10:00:00 9,3 -0,2 7,2 8,7 18 10 - - W 1024,9 10 54 0,0
23.04.2017 09:00:00 8,1 1,2 - - 15 8 - - WSW 1025,4 10 60 0,0
23.04.2017 08:00:00 5,9 1,7 - - 15 8 - - WSW 1025,7 10 6 0,0
23.04.2017 07:00:00 3,8 1,3 - - 13 7 - - W 1026,1 10 0 0,0
23.04.2017 06:00:00 1,9 0,0 - - 9 5 - - W 1026,4 10 0 0,0
23.04.2017 05:00:00 3,3 0,3 - - 15 8 - - W 1026,6 10 0 0,0
23.04.2017 04:00:00 3,5 0,6 - - 13 7 - - W 1026,9 10 0 0,0
23.04.2017 03:00:00 3,3 0,8 - - 8 4 - - W 1027,2 10 0 0,0
23.04.2017 02:00:00 3,5 1,4 - - 8 4 - - SW 1027,8 10 0 0,0
23.04.2017 01:00:00 5,2 2,7 - - 8 4 - - WSW 1028,2 10 - 0,0
23.04.2017 00:00:00 6,7 3,6 - - 11 6 - - ESE 1028,4 10 0 0,0
22.04.2017 23:00:00 6,7 1,9 - - 5 3 - - ENE 1028,4 10 0 0,0
22.04.2017 22:00:00 7,5 2,3 - - 11 6 - - ENE 1028,2 10 0 0,0
22.04.2017 21:00:00 8,2 1,2 - - 5 3 - - E 1027,8 10 0 0,0
22.04.2017 20:00:00 9,3 -0,6 - - 8 4 - - N 1027,7 10 0 0,0
22.04.2017 19:00:00 10,3 -1,3 - - 15 8 - - NW 1027,7 10 42 0,0
22.04.2017 18:00:00 10,3 -1,2 - - 16 9 - - NNW 1027,9 10 0 0,0
22.04.2017 17:00:00 10,7 -2,2 - - 11 6 - - NW 1027,9 10 0 0,0
22.04.2017 16:00:00 10,6 -2,8 - - 13 7 - - NW 1028,4 45 42 0,0
22.04.2017 15:00:00 10,7 -3,1 - - 16 9 - - NW 1028,7 45 12 0,0
22.04.2017 14:00:00 10,2 -3,8 - - 13 7 - - NNW 1029,2 50 12 0,0
22.04.2017 13:00:00 9,4 -3,2 - - 16 9 - - NNW 1029,6 50 18 0,0
22.04.2017 12:00:00 8,7 -2,7 - - 16 9 - - NNW 1029,8 10 0 0,0
22.04.2017 11:00:00 8,4 -2,1 - - 15 8 - - NNW 1030,0 10 0 0,0
22.04.2017 10:00:00 7,9 -0,5 7,5 8,7 15 8 - - WNW 1030,0 10 12 0,0
22.04.2017 09:00:00 7,2 -0,3 - - 15 8 - - NW 1030,1 10 24 0,0
22.04.2017 08:00:00 6,2 0,1 - - 15 8 - - WNW 1030,0 10 36 0,0
22.04.2017 07:00:00 5,0 0,7 - - 11 6 - - WNW 1029,8 10 0 0,0
22.04.2017 06:00:00 5,5 0,6 - - 13 7 - - WNW 1029,7 10 0 0,0
22.04.2017 05:00:00 3,6 1,0 - - 8 4 - - WSW 1029,4 10 0 0,0
22.04.2017 04:00:00 3,1 0,0 - - 5 3 - - N 1029,5 10 0 0,0
22.04.2017 03:00:00 5,3 -0,2 - - 11 6 - - NW 1029,6 10 0 0,0
22.04.2017 02:00:00 6,0 0,4 - - 11 6 - - NW 1029,6 10 0 0,0
22.04.2017 01:00:00 6,3 -0,1 - - 11 6 - - NW 1029,8 10 - 0,0
22.04.2017 00:00:00 7,8 0,3 - - 13 7 - - NW 1029,7 10 0 0,0
21.04.2017 23:00:00 6,5 0,3 - - 2 1 - - WNW 1029,3 10 0 0,0
21.04.2017 22:00:00 7,7 1,1 - - 11 6 - - WNW 1029,1 10 0 0,0
21.04.2017 21:00:00 7,4 0,7 - - 8 4 - - N 1028,7 10 12 0,0
21.04.2017 20:00:00 10,2 1,3 - - 16 9 - - N 1028,1 10 54 0,0
21.04.2017 19:00:00 12,6 1,1 - - 15 8 - - NNW 1027,3 10 60 0,0
21.04.2017 18:00:00 14,0 0,9 - - 16 9 - - NNW 1026,8 10 60 0,0
21.04.2017 17:00:00 14,2 1,8 - - 15 8 - - NNW 1026,3 10 54 0,0
21.04.2017 16:00:00 14,3 3,8 - - 16 9 - - NW 1026,2 10 36 0,0
21.04.2017 15:00:00 11,7 7,3 - - 15 8 - - SE 1026,2 10 36 0,0
21.04.2017 14:00:00 10,1 8,9 - - 15 8 - - SE 1026,2 10 0 0,0
21.04.2017 13:00:00 9,1 8,3 - - 16 9 - - ESE 1026,2 12 0 0,6
21.04.2017 12:00:00 10,7 8,4 - - 26 14 48 26 NW 1025,9 10 6 1,0
21.04.2017 11:00:00 13,9 7,4 - - 35 19 46 25 W 1025,0 10 0 0,0
21.04.2017 10:00:00 13,1 7,4 7,7 8,5 29 16 - - W 1024,8 10 0 0,0
21.04.2017 09:00:00 11,6 8,0 - - 24 13 - - W 1024,8 10 0 0,0
21.04.2017 08:00:00 11,0 7,9 - - 34 18 - - W 1024,6 10 0 0,0
21.04.2017 07:00:00 10,2 8,0 - - 21 11 - - WSW 1025,0 10 0 0,0
21.04.2017 06:00:00 9,6 7,7 - - 18 10 - - W 1025,3 10 0 0,0
21.04.2017 05:00:00 9,4 7,4 - - 18 10 - - W 1025,9 10 0 0,0
21.04.2017 04:00:00 9,9 7,4 - - 26 14 - - W 1026,6 10 0 0,0

tt = temperature
td = dewpoint
tt -20cm = temperature -20cm
tt -100cm = temperature -100cm
ff = wind speed
fx = gusts
dd = wind direction
ppp = reduced air pressure
vv = visibility
sd = sunshine duration
rr = precipitation

Next stations